This is the latest recevied weather packets stored in our database for station/object K5NWZ. If no packets are shown the sender has not sent any weather packets the latest 10 day(s).
| Time | Temp. | Humidity | Pressure | Rain* | Wind** | Luminosity | Snow |
|---|---|---|---|---|---|---|---|
| 1777746930 | 18.89° C | 19% | 1028.8 hPa | 0 mm | - | 797 W/m² | - |
| 1777746626 | 18.33° C | 19% | 1029.1 hPa | 0 mm | - | 795 W/m² | - |
| 1777746321 | 18.33° C | 20% | 1029 hPa | 0 mm | - | 793 W/m² | - |
| 1777746017 | 18.89° C | 20% | 1029.4 hPa | 0 mm | - | 790 W/m² | - |
| 1777745716 | 17.78° C | 20% | 1029.5 hPa | 0 mm | - | 786 W/m² | - |
| 1777745414 | 17.78° C | 19% | 1029.3 hPa | 0 mm | - | 784 W/m² | - |
| 1777745111 | 17.78° C | 20% | 1029.5 hPa | 0 mm | - | 781 W/m² | - |
| 1777744802 | 18.89° C | 19% | 1029.5 hPa | 0 mm | - | 776 W/m² | - |
| 1777744496 | 17.78° C | 20% | 1029.6 hPa | 0 mm | - | 771 W/m² | - |
| 1777744193 | 18.33° C | 20% | 1029.8 hPa | 0 mm | - | 768 W/m² | - |
| 1777743889 | 18.33° C | 19% | 1029.9 hPa | 0 mm | - | 762 W/m² | - |
| 1777743586 | 18.89° C | 19% | 1029.8 hPa | 0 mm | - | 754 W/m² | - |
| 1777743283 | 17.78° C | 19% | 1029.7 hPa | 0 mm | - | 750 W/m² | - |
| 1777742981 | 17.22° C | 20% | 1029.9 hPa | 0 mm | - | 745 W/m² | - |
| 1777742678 | 16.67° C | 20% | 1029.8 hPa | 0 mm | - | 738 W/m² | - |
| 1777742374 | 17.22° C | 19% | 1029.8 hPa | 0 mm | - | 732 W/m² | - |
| 1777742070 | 17.22° C | 20% | 1029.8 hPa | 0 mm | - | 725 W/m² | - |
| 1777741768 | 17.22° C | 20% | 1029.7 hPa | 0 mm | - | 717 W/m² | - |
| 1777741464 | 17.78° C | 19% | 1030.1 hPa | 0 mm | - | 709 W/m² | - |
| 1777741160 | 16.67° C | 20% | 1029.9 hPa | 0 mm | - | 700 W/m² | - |
| 1777740857 | 17.22° C | 20% | 1030.2 hPa | 0 mm | - | 691 W/m² | - |
| 1777740554 | 17.22° C | 19% | 1030.1 hPa | 0 mm | - | 682 W/m² | - |
| 1777740251 | 16.67° C | 21% | 1030.1 hPa | 0 mm | - | 673 W/m² | - |
| 1777739947 | 16.67° C | 21% | 1029.9 hPa | 0 mm | - | 662 W/m² | - |
| 1777739643 | 17.22° C | 23% | 1030.4 hPa | 0 mm | - | 651 W/m² | - |
* Rain latest hour (hover to see other rain measurements)
** Current wind speed in m/s (hover to see current wind gust speed)